Onweer radar Meer informatie blitzortung!


Regen radar Meer informatie rain snow radar


Bezoek onze andere website:

Template documentation
and downloads

And another site



15 daagse weersverwachting Dudley (GB)

  • Overzicht
  • Per uur
  • 15 dagen
  • Extra
  • Vergelijk
  • Kaarten
  • Dagkaart
  • Meer »
  • Info
  • Statistieken
  • Directe link
    Temp 6h Neerslag Wind  
 04:46     21:33    Daglengte: 16:47 Vandaag
19:00
15°
 
5
 04:46     21:34    Daglengte: 16:48 Morgen
01:00
12°
 
7
07:00
12°
 
7
13:00
16°
 
6
19:00
17°
 
5
 04:46     21:34    Daglengte: 16:48 Dinsdag 18 Jun
01:00
13°
 
3
07:00
13°
 
3
13:00
17°
 
3
19:00
16°
 
1
 04:46     21:34    Daglengte: 16:48 Woensdag 19 Jun
01:00
14°
5.0 mm
1
07:00
13°
8.3 mm
2
13:00
13°
16.2 mm
4
Locatie info
Region: England
Latitude: 52.5095°N
Longitude: -2.0835°E
161 masl
Postcode: DY2 8
Temp/Neerslag /Baro Onweer/Dauwpunt
    Temp Baro 1h Neerslag Dauwpunt Wind UV Bewolking  
 04:46     21:33    Daglengte: 16:47 Vandaag
19:00
15°
1013.7 hPa
49%
10.6°
5
Windvlaag: 4 m/s
73%
20:00
15°
1013.6 hPa
61%
11.2°
6
Windvlaag: 4.7 m/s
88%
21:00
14°
1014.0 hPa
21%
11.1°
6
Windvlaag: 4.8 m/s
72%
22:00
14°
1014.3 hPa
21%
10.4°
6
Windvlaag: 5 m/s
51%
23:00
13°
1014.4 hPa
28%
10.5°
6
Windvlaag: 5.3 m/s
44%
 04:46     21:34    Daglengte: 16:48 Morgen
00:00
13°
1014.5 hPa
32%
10.8°
6
Windvlaag: 5.8 m/s
22%
01:00
12°
1014.4 hPa
17%
10.7°
7
Windvlaag: 6 m/s
25%
02:00
12°
1014.5 hPa
65%
10.4°
6
Windvlaag: 5.9 m/s
59%
03:00
12°
1014.3 hPa
64%
10.4°
6
Windvlaag: 5.8 m/s
59%
04:00
12°
1014.3 hPa
25%
10.4°
6
Windvlaag: 4.2 m/s
60%
05:00
12°
1014.4 hPa
21%
10.4°
6
Windvlaag: 6 m/s
71%
06:00
12°
1014.6 hPa
20%
10.4°
6
Windvlaag: 5.7 m/s
60%
07:00
12°
1014.7 hPa
21%
10.4°
7
Windvlaag: 5.9 m/s
74%
08:00
13°
1014.8 hPa
31%
10.7°
7
Windvlaag: 5.7 m/s
88%
09:00
13°
1015.0 hPa
28%
10.5°
7
Windvlaag: 5.9 m/s
89%
10:00
14°
1015.1 hPa
23%
10.7°
7
Windvlaag: 5.6 m/s
71%
11:00
15°
1015.2 hPa
17%
10.8°
7
Windvlaag: 5.5 m/s
87%
12:00
15°
1015.3 hPa
19%
10.9°
7
Windvlaag: 5.6 m/s
73%
13:00
16°
1015.1 hPa
23%
10.5°
6
Windvlaag: 5.3 m/s
53%
14:00
17°
1015.1 hPa
30%
11.2°
7
Windvlaag: 5.2 m/s
48%
15:00
18°
1014.9 hPa
76%
10.8°
6
Windvlaag: 5.5 m/s
57%
16:00
18°
1014.7 hPa
34%
10.9°
6
Windvlaag: 4.8 m/s
78%
17:00
17°
1014.6 hPa
27%
11.3°
6
Windvlaag: 4.3 m/s
61%
18:00
17°
1014.6 hPa
27%
11.5°
5
Windvlaag: 4.2 m/s
61%
19:00
17°
1014.6 hPa
21%
11.4°
5
Windvlaag: 4 m/s
68%
20:00
16°
1014.6 hPa
49%
11.1°
4
Windvlaag: 3.5 m/s
45%
21:00
15°
1014.8 hPa
17%
11.1°
3
Windvlaag: 2.9 m/s
41%
22:00
14°
1015.1 hPa
14%
11.0°
3
Windvlaag: 2.4 m/s
16%
23:00
13°
1015.3 hPa
14%
11.2°
3
Windvlaag: 2.2 m/s
50%
 04:46     21:34    Daglengte: 16:48 Dinsdag 18 Jun
00:00
13°
1015.2 hPa
17%
11.3°
3
Windvlaag: 2.2 m/s
56%
01:00
13°
1015.2 hPa
15%
11.0°
3
Windvlaag: 2.3 m/s
81%
02:00
12°
1015.2 hPa
16%
10.8°
3
Windvlaag: 2.2 m/s
66%
03:00
12°
1014.9 hPa
17%
10.8°
2
Windvlaag: 1.9 m/s
82%
04:00
12°
1014.6 hPa
16%
10.8°
2
Windvlaag: 1.5 m/s
88%
05:00
11°
1014.6 hPa
14%
10.8°
2
Windvlaag: 1.8 m/s
78%
06:00
12°
1014.6 hPa
14%
10.8°
3
Windvlaag: 1.8 m/s
82%
07:00
13°
1014.7 hPa
14%
10.9°
3
Windvlaag: 1.6 m/s
78%
08:00
13°
1014.6 hPa
19%
11.0°
3
Windvlaag: 1.8 m/s
83%
09:00
14°
1014.7 hPa
20%
10.9°
3
Windvlaag: 2.1 m/s
75%
10:00
15°
1014.5 hPa
14%
10.6°
3
Windvlaag: 2.1 m/s
76%
11:00
16°
1014.3 hPa
14%
10.3°
3
Windvlaag: 1.7 m/s
68%
12:00
17°
1014.0 hPa
14%
10.3°
3
Windvlaag: 2.1 m/s
70%
13:00
17°
1013.6 hPa
16%
10.3°
3
Windvlaag: 3.1 m/s
80%
14:00
18°
1013.2 hPa
14%
10.4°
3
Windvlaag: 2.5 m/s
80%
15:00
18°
1012.8 hPa
14%
10.6°
3
Windvlaag: 2.1 m/s
86%
16:00
17°
1012.3 hPa
26%
12.1°
3
Windvlaag: 1.9 m/s
92%
17:00
17°
1011.8 hPa
100%
12.3°
2
Windvlaag: 2.2 m/s
98%
18:00
17°
1011.5 hPa
100%
12.4°
2
Windvlaag: 1.9 m/s
94%
19:00
16°
1011.2 hPa
100%
12.6°
1
Windvlaag: 1.6 m/s
94%
20:00
16°
1011.2 hPa
100%
13.4°
1
Windvlaag: 1.3 m/s
96%
21:00
15°
1011.0 hPa 0.8 mm
100%
13.7°
1
Windvlaag: 0.9 m/s
90%
22:00
14°
1011.0 hPa 1.2 mm
100%
13.3°
1
Windvlaag: 0.4 m/s
94%
23:00
14°
1010.6 hPa 1.0 mm
100%
13.0°
1
Windvlaag: -0.2 m/s
94%
 04:46     21:34    Daglengte: 16:48 Woensdag 19 Jun
00:00
14°
1010.2 hPa 1.0 mm
100%
12.9°
1
Windvlaag: -0.3 m/s
95%
01:00
14°
1009.6 hPa 1.0 mm
100%
13.0°
1
Windvlaag: -0.2 m/s
95%
02:00
13°
1008.9 hPa 1.2 mm
100%
13.0°
2
Windvlaag: 0.1 m/s
97%
03:00
13°
1008.4 hPa 1.0 mm
100%
12.8°
2
Windvlaag: 0.5 m/s
99%
04:00
13°
1007.7 hPa 1.5 mm
100%
12.5°
2
Windvlaag: 0.7 m/s
99%
05:00
13°
1007.0 hPa 1.3 mm
100%
12.3°
2
Windvlaag: 0.3 m/s
98%
06:00
13°
1006.8 hPa 1.8 mm
100%
12.3°
2
Windvlaag: -0.6 m/s
99%
07:00
13°
1006.8 hPa 1.5 mm
100%
12.3°
2
Windvlaag: -1.1 m/s
100%
08:00
13°
1006.6 hPa 2.0 mm
100%
12.1°
3
Windvlaag: -2.1 m/s
100%
09:00
13°
1006.6 hPa 1.8 mm
100%
11.6°
3
Windvlaag: -2.4 m/s
99%
10:00
14°
1006.6 hPa 3.1 mm
100%
11.2°
3
Windvlaag: -3.1 m/s
99%
11:00
14°
1006.6 hPa 3.9 mm
100%
11.0°
3
Windvlaag: -4.2 m/s
99%
12:00
13°
1006.9 hPa 2.7 mm
100%
9.7°
4
Windvlaag: -4.3 m/s
98%
13:00
13°
1007.2 hPa 2.8 mm
100%
8.8°
4
Windvlaag: -1.7 m/s
97%
14:00
15°
1006.7 hPa 4.5 mm
100%
10.0°
4
Windvlaag: 8.4 m/s
91%
15:00
15°
1006.8 hPa
100%
10.2°
4
Windvlaag: 7.5 m/s
72%
16:00
15°
1006.9 hPa
26%
10.2°
4
Windvlaag: 7.8 m/s
60%
17:00
16°
1006.9 hPa
22%
10.7°
4
Windvlaag: 7.8 m/s
35%
18:00
16°
1006.9 hPa
21%
10.6°
3
Windvlaag: 6.3 m/s
32%
Temp/Neerslag /Baro Onweer/Dauwpunt
    Temp Baro Neerslag Dauwpunt Wind Bewolking  
 04:46     21:33    Daglengte: 16:47 Vandaag
19:00
15°
1013.7 hPa   10.6°
5
73%
22:00
14°
1014.3 hPa   10.4°
6
51%
 04:46     21:34    Daglengte: 16:48 Morgen
01:00
12°
1014.4 hPa   10.7°
7
25%
04:00
12°
1014.3 hPa   10.4°
6
60%
07:00
12°
1014.7 hPa   10.4°
7
74%
10:00
14°
1015.1 hPa   10.7°
7
71%
13:00
16°
1015.1 hPa   10.5°
6
53%
16:00
18°
1014.7 hPa   10.9°
6
78%
19:00
17°
1014.6 hPa   11.4°
5
68%
22:00
14°
1015.1 hPa   11.0°
3
16%
 04:46     21:34    Daglengte: 16:48 Dinsdag 18 Jun
01:00
13°
1015.2 hPa   11.0°
3
81%
04:00
12°
1014.6 hPa   10.8°
2
88%
07:00
13°
1014.7 hPa   10.9°
3
78%
10:00
15°
1014.5 hPa   10.6°
3
76%
13:00
17°
1013.6 hPa   10.3°
3
80%
16:00
17°
1012.3 hPa   12.1°
3
92%
19:00
16°
1011.2 hPa   12.6°
1
94%
22:00
14°
1011.0 hPa 2.0 mm 13.3°
1
94%
 04:46     21:34    Daglengte: 16:48 Woensdag 19 Jun
01:00
14°
1009.6 hPa 3.0 mm 13.0°
1
95%
04:00
13°
1007.7 hPa 3.7 mm 12.5°
2
99%
07:00
13°
1006.8 hPa 4.6 mm 12.3°
2
100%
10:00
14°
1006.6 hPa 6.8 mm 11.2°
3
99%
13:00
13°
1007.2 hPa 9.4 mm 8.8°
4
97%
16:00
15°
1006.9 hPa 4.5 mm 10.2°
4
60%
19:00
16°
1007.1 hPa   10.4°
3
40%
22:00
12°
1009.1 hPa 18.3 mm 9.3°
2
18%
 04:47     21:35    Daglengte: 16:48 Donderdag 20 Jun
01:00
10°
Voelt als: 8.6°
1009.7 hPa 18.3 mm 8.2°
2
4%
04:00
10°
1009.9 hPa 18.3 mm 8.5°
4
44%
07:00
11°
1010.1 hPa 18.3 mm 8.8°
5
85%
10:00
13°
1010.4 hPa 18.4 mm 8.4°
5
69%
13:00
15°
1010.7 hPa 18.9 mm 7.4°
5
53%
16:00
15°
1011.0 hPa 19.6 mm 6.9°
5
37%
19:00
14°
1011.3 hPa 20.2 mm 6.3°
4
22%
22:00
11°
1013.1 hPa 20.3 mm 6.9°
3
15%
 04:47     21:35    Daglengte: 16:48 Vrijdag 21 Jun
01:00
Voelt als: 7.0°
1014.8 hPa 20.3 mm 6.7°
2
8%
04:00
Voelt als: 7.9°
1015.8 hPa 20.3 mm 7.1°
2
7%
07:00
10°
1016.8 hPa 20.3 mm 7.7°
2
6%
10:00
13°
1018.0 hPa 20.6 mm 7.0°
3
42%
13:00
15°
1019.1 hPa 21.0 mm 5.1°
4
77%
16:00
15°
1019.9 hPa 21.4 mm 5.2°
3
69%
19:00
15°
1020.6 hPa 21.9 mm 5.4°
3
60%
22:00
11°
1022.1 hPa 22.0 mm 5.7°
2
31%
 04:47     21:35    Daglengte: 16:48 Zaterdag 22 Jun
01:00
Voelt als: 8.0°
1023.5 hPa 22.0 mm 5.4°
1
3%
04:00
Voelt als: 8.6°
1024.0 hPa 22.0 mm 5.8°
2
2%
07:00
10°
1024.4 hPa 22.0 mm 6.3°
2
1%
10:00
13°
1024.4 hPa 22.0 mm 6.6°
2
47%
13:00
16°
1024.4 hPa 22.0 mm 6.0°
2
92%
16:00
16°
1023.8 hPa 22.0 mm 7.4°
2
81%
19:00
16°
1023.2 hPa 22.1 mm 8.8°
2
70%
22:00
14°
1023.6 hPa 22.6 mm 9.1°
3
81%
 04:47     21:35    Daglengte: 16:48 Zondag 23 Jun
01:00
13°
1023.9 hPa 22.9 mm 9.0°
3
92%
04:00
12°
1023.8 hPa 22.9 mm 8.8°
3
92%
07:00
12°
1023.8 hPa 22.9 mm 8.9°
3
92%
10:00
14°
1023.5 hPa 22.9 mm 8.8°
3
91%
13:00
16°
1023.1 hPa 23.3 mm 8.4°
4
90%
16:00
16°
1022.2 hPa   9.3°
4
87%
19:00
15°
1021.5 hPa 48.6 mm 10.2°
5
83%
 04:48     21:35    Daglengte: 16:47 Maandag 24 Jun
01:00
13°
1021.8 hPa 52.9 mm 9.8°
5
92%
07:00
12°
1021.6 hPa 65.3 mm 9.3°
5
92%
13:00
13°
1023.0 hPa 77.3 mm 8.4°
5
92%
19:00
14°
1023.1 hPa 79.9 mm 8.0°
6
87%
 04:48     21:35    Daglengte: 16:47 Dinsdag 25 Jun
01:00
10°
1025.2 hPa 81.8 mm 7.2°
5
7%
07:00
10°
Voelt als: 7.4°
1026.2 hPa 82.5 mm 7.7°
5
70%
13:00
17°
1026.1 hPa 83.2 mm 8.6°
5
59%
19:00
17°
1026.0 hPa 86.7 mm 8.8°
5
0%
 04:49     21:35    Daglengte: 16:46 Woensdag 26 Jun
01:00
Voelt als: 8.3°
1027.8 hPa 89.2 mm 7.8°
2
0%
07:00
10°
1014.0 hPa 89.7 mm 8.7°
8
1%
13:00
16°
1022.4 hPa 0.3 mm 10.1°
4
46%
19:00
16°
1021.8 hPa 0.9 mm 10.7°
4
48%
 04:49     21:35    Daglengte: 16:46 Donderdag 27 Jun
01:00
Voelt als: 8.2°
1022.5 hPa 0.3 mm 7.3°
2
29%
07:00
10°
1021.3 hPa   8.5°
2
31%
13:00
17°
1020.0 hPa 0.5 mm 10.3°
2
45%
19:00
16°
1018.1 hPa 0.9 mm 11.2°
2
53%
 04:50     21:35    Daglengte: 16:45 Vrijdag 28 Jun
01:00
10°
1018.0 hPa 0.5 mm 8.3°
1
40%
07:00
11°
1016.9 hPa 0.2 mm 9.2°
2
39%
13:00
17°
1016.3 hPa 0.5 mm 11.3°
2
53%
19:00
17°
1015.3 hPa 0.5 mm 11.8°
2
62%
 04:50     21:35    Daglengte: 16:45 Zaterdag 29 Jun
01:00
10°
1015.6 hPa 0.4 mm 8.8°
1
40%
07:00
12°
1014.8 hPa 0.2 mm 10.0°
2
39%
13:00
18°
1014.1 hPa 0.5 mm 12.0°
3
47%
19:00
18°
1013.1 hPa 1.2 mm 12.9°
2
55%
 04:51     21:34    Daglengte: 16:43 Zondag 30 Jun
01:00
11°
1013.6 hPa 0.5 mm 9.8°
2
48%
07:00
11°
1012.5 hPa 0.4 mm 9.8°
2
54%
13:00
17°
1011.9 hPa 1.0 mm 11.5°
3
52%
19:00
16°
1011.6 hPa 1.1 mm 11.6°
4
57%
 04:52     21:34    Daglengte: 16:42 Maandag 01 Jul
01:00
10°
1012.8 hPa 0.4 mm 8.8°
3
47%
07:00
11°
1012.7 hPa 0.6 mm 9.3°
3
33%
13:00
17°
1013.0 hPa 0.5 mm 10.7°
4
42%
  CAPE Lifted Index Hail Supercell Tornado SRH 3km CL BTM PRES CL TOP PRES Swiss DWD icon SMHI TS
 04:46     21:33    Daglengte: 16:47 Vandaag
19:00 255 J/kg -0.9 K 0 % 0 % 0 % 0 m²/s² 0 0 -0.6 3
20:00 138 J/kg 0.0 K 0 % 0 % 0 % 0 m²/s² 0 0 0.39 3
21:00 40 J/kg 1.3 K 0 % 0 % 0 % 0 m²/s² 0 0 1.93 3
22:00 41 J/kg 1.7 K 0 % 0 % 0 % 0 m²/s² 0 0 2.51 3
23:00 18 J/kg 2.5 K 0 % 0 % 0 % 0 m²/s² 0 0 3.46 3
 04:46     21:34    Daglengte: 16:48 Morgen
00:00 0 J/kg 3.7 K 0 % 0 % 0 % 0 m²/s² 0 0 5.02 3
01:00 0 J/kg 4.8 K 0 % 0 % 0 % 0 m²/s² 0 0 6.18 3
02:00 0 J/kg 5.5 K 0 % 0 % 0 % 0 m²/s² 0 0 6.76 80
03:00 0 J/kg 4.6 K 0 % 0 % 0 % 0 m²/s² 0 0 6.19 3
04:00 0 J/kg 3.6 K 0 % 0 % 0 % 0 m²/s² 0 0 5.7 3
05:00 0 J/kg 3.5 K 0 % 0 % 0 % 0 m²/s² 0 0 5.87 3
06:00 0 J/kg 3.8 K 0 % 0 % 0 % 0 m²/s² 0 0 6.53 3
07:00 2 J/kg 3.9 K 0 % 0 % 0 % 0 m²/s² 0 0 6.87 3
08:00 7 J/kg 3.9 K 0 % 0 % 0 % 0 m²/s² 0 0 7.11 3
09:00 16 J/kg 3.9 K 0 % 0 % 0 % 0 m²/s² 0 0 7.29 3
10:00 16 J/kg 3.5 K 0 % 0 % 0 % 0 m²/s² 0 0 7.16 3
11:00 16 J/kg 3.3 K 0 % 0 % 0 % 0 m²/s² 0 0 7.17 3
12:00 40 J/kg 2.9 K 0 % 0 % 0 % 0 m²/s² 0 0 7.19 3
13:00 73 J/kg 2.0 K 0 % 0 % 0 % 0 m²/s² 0 0 6.5 3
14:00 118 J/kg 1.4 K 0 % 0 % 0 % 0 m²/s² 0 0 5.57 3
15:00 113 J/kg 1.4 K 0 % 0 % 0 % 0 m²/s² 0 0 5.81 3
16:00 95 J/kg 1.3 K 0 % 0 % 0 % 0 m²/s² 0 0 5.26 3
17:00 119 J/kg 1.0 K 0 % 0 % 0 % 0 m²/s² 0 0 4.39 3
18:00 198 J/kg 0.4 K 0 % 0 % 0 % 0 m²/s² 0 0 3.88 3
19:00 152 J/kg 1.0 K 0 % 0 % 0 % 0 m²/s² 0 0 4.57 3
20:00 38 J/kg 2.2 K 0 % 0 % 0 % 0 m²/s² 0 0 4.63 3
21:00 61 J/kg 1.8 K 0 % 0 % 0 % 0 m²/s² 0 0 3.96 2
22:00 47 J/kg 2.3 K 0 % 0 % 0 % 0 m²/s² 0 0 5.72 2
23:00 22 J/kg 2.3 K 0 % 0 % 0 % 0 m²/s² 0 0 5.87 2
 04:46     21:34    Daglengte: 16:48 Dinsdag 18 Jun
00:00 0 J/kg 3.1 K 0 % 0 % 0 % 0 m²/s² 0 0 6.4 3
01:00 0 J/kg 3.2 K 0 % 0 % 0 % 0 m²/s² 0 0 6.02 3
02:00 0 J/kg 4.0 K 0 % 0 % 0 % 0 m²/s² 0 0 7.15 3
03:00 0 J/kg 4.0 K 0 % 0 % 0 % 0 m²/s² 0 0 6.82 3
04:00 0 J/kg 4.2 K 0 % 0 % 0 % 0 m²/s² 0 0 6.57 3
05:00 0 J/kg 4.1 K 0 % 0 % 0 % 0 m²/s² 0 0 6.41 3
06:00 1 J/kg 4.1 K 0 % 0 % 0 % 0 m²/s² 0 0 6.08 3
07:00 0 J/kg 4.5 K 0 % 0 % 0 % 0 m²/s² 0 0 6.6 3
08:00 0 J/kg 4.4 K 0 % 0 % 0 % 0 m²/s² 0 0 6.77 3
09:00 0 J/kg 4.2 K 0 % 0 % 0 % 0 m²/s² 0 0 7.02 3
10:00 1 J/kg 3.5 K 0 % 0 % 0 % 0 m²/s² 0 0 6.02 3
11:00 2 J/kg 3.1 K 0 % 0 % 0 % 0 m²/s² 0 0 4.6 3
12:00 2 J/kg 3.4 K 0 % 0 % 0 % 0 m²/s² 0 0 4.69 3
13:00 0 J/kg 3.3 K 0 % 0 % 0 % 0 m²/s² 0 0 4.38 3
14:00 0 J/kg 2.7 K 0 % 0 % 0 % 0 m²/s² 0 0 3.18 3
15:00 6 J/kg 2.2 K 0 % 0 % 0 % 0 m²/s² 0 0 2.32 3
16:00 9 J/kg 1.9 K 0 % 0 % 0 % 0 m²/s² 0 0 1.99 3
17:00 15 J/kg 1.9 K 0 % 0 % 0 % 0 m²/s² 0 0 1.93 61
18:00 47 J/kg 2.0 K 0 % 0 % 0 % 0 m²/s² 0 0 2.03 61
19:00 25 J/kg 2.1 K 0 % 0 % 0 % 0 m²/s² 0 0 2.13 61
20:00 22 J/kg 2.7 K 0 % 0 % 0 % 0 m²/s² 0 0 2.88 61
21:00 0 J/kg 2.6 K 0 % 0 % 0 % 0 m²/s² 0 0 2.93 61
22:00 1 J/kg 1.9 K 0 % 0 % 0 % 0 m²/s² 0 0 2.83 61
23:00 3 J/kg 2.3 K 0 % 0 % 0 % 0 m²/s² 0 0 3.38 61
 04:46     21:34    Daglengte: 16:48 Woensdag 19 Jun
00:00 1 J/kg 2.6 K 0 % 0 % 0 % 0 m²/s² 0 0 4.46 61
01:00 1 J/kg 2.7 K 0 % 0 % 0 % 0 m²/s² 0 0 4.71 61
02:00 1 J/kg 2.5 K 0 % 0 % 0 % 0 m²/s² 0 0 4.12 61
03:00 1 J/kg 2.7 K 0 % 0 % 0 % 0 m²/s² 0 0 3.84 61
04:00 0 J/kg 2.6 K 0 % 0 % 0 % 0 m²/s² 0 0 3.11 63
05:00 0 J/kg 2.8 K 0 % 0 % 0 % 0 m²/s² 0 0 3.7 63
06:00 0 J/kg 2.4 K 0 % 0 % 0 % 0 m²/s² 0 0 2.79 63
07:00 0 J/kg 2.6 K 0 % 0 % 0 % 0 m²/s² 0 0 2.9 63
08:00 0 J/kg 2.7 K 0 % 0 % 0 % 0 m²/s² 0 0 2.79 61
09:00 0 J/kg 2.6 K 0 % 0 % 0 % 0 m²/s² 0 0 2.69 80
10:00 0 J/kg 2.7 K 0 % 0 % 0 % 0 m²/s² 0 0 2.73 51
11:00 1 J/kg 2.7 K 0 % 0 % 0 % 0 m²/s² 0 0 2.79 3
12:00 1 J/kg 3.1 K 0 % 0 % 0 % 0 m²/s² 0 0 3.31 61
13:00 1 J/kg 3.7 K 0 % 0 % 0 % 0 m²/s² 0 0 4.18 3
14:00 2 J/kg 4.1 K 0 % 0 % 0 % 0 m²/s² 0 0 4.7 61
15:00 3 J/kg 5.5 K 0 % 0 % 0 % 0 m²/s² 0 0 6.19 3
16:00 0 J/kg 6.2 K 0 % 0 % 0 % 0 m²/s² 0 0 7.04 3
17:00 15 J/kg 5.1 K 0 % 0 % 0 % 0 m²/s² 0 0 6.42 2
18:00 24 J/kg 4.3 K 0 % 0 % 0 % 0 m²/s² 0 0 7.45 0
Temp Baro Wind Neerslag
  EWN Forecast EWN WRFDA DWD ICON FMI HIRLAM MET Norway GFS
 04:46     21:33    Daglengte: 16:47 Vandaag
19:00 15.5° 1013.7 hPa 5.5 m/s 0.0 mm 15.8° 1012.9 hPa 6.0 m/s 0.7 mm 14.0° 1014.5 hPa 4.2 m/s -1.7 mm 16.1° 1013.7 hPa 5.7 m/s 0.0 mm 15.8° 1013.3 hPa 5.8 m/s 0.0 mm 14.8° 1013.6 hPa 6.0 m/s
22:00 13.9° 1014.3 hPa 5.9 m/s 0.0 mm 14.2° 1014.4 hPa 5.9 m/s 3.9 mm 13.5° 1015.1 hPa 4.5 m/s 0.0 mm 15.4° 1014.1 hPa 6.8 m/s 0.0 mm 13.8° 1014.0 hPa 6.1 m/s 0.0 mm 12.6° 1015.2 hPa 5.7 m/s
 04:46     21:34    Daglengte: 16:48 Morgen
01:00 12.5° 1014.4 hPa 6.5 m/s 0.0 mm 11.5° 1014.1 hPa 6.6 m/s 4.4 mm 12.4° 1015.5 hPa 4.7 m/s 0.0 mm 14.7° 1013.9 hPa 7.5 m/s 0.0 mm 12.3° 1014.3 hPa 6.5 m/s 0.0 mm 11.1° 1015.4 hPa 6.5 m/s
04:00 11.9° 1014.3 hPa 6.3 m/s 0.0 mm 10.3° 1013.6 hPa 5.8 m/s 4.4 mm 11.3° 1015.1 hPa 4.7 m/s 0.3 mm 13.5° 1013.9 hPa 7.4 m/s 0.0 mm 12.0° 1014.3 hPa 6.2 m/s 0.0 mm 9.8° 1014.4 hPa 6.5 m/s
07:00 12.3° 1014.7 hPa 6.6 m/s 0.0 mm 11.8° 1013.8 hPa 6.7 m/s 4.4 mm 11.8° 1015.5 hPa 5.1 m/s 0.0 mm 13.2° 1014.5 hPa 6.3 m/s 0.0 mm 12.6° 1014.6 hPa 7.5 m/s 0.0 mm 11.3° 1014.9 hPa 7.4 m/s
10:00 14.1° 1015.1 hPa 6.7 m/s 0.0 mm 14.7° 1014.6 hPa 6.5 m/s 4.4 mm 13.2° 1015.9 hPa 5.5 m/s 0.0 mm 13.7° 1015.1 hPa 5.9 m/s 0.0 mm 14.8° 1014.7 hPa 7.1 m/s 0.0 mm 15.2° 1015.3 hPa 7.9 m/s
13:00 15.9° 1015.1 hPa 6.4 m/s 0.0 mm 17.1° 1014.0 hPa 6.1 m/s 4.5 mm 14.5° 1015.7 hPa 3.9 m/s 0.0 mm 15.5° 1015.2 hPa 5.1 m/s 0.0 mm 17.5° 1014.7 hPa 7.9 m/s 0.6 mm 17.3° 1015.3 hPa 8.0 m/s
16:00 17.7° 1014.7 hPa 6.1 m/s 0.0 mm 18.8° 1013.6 hPa 6.5 m/s 4.6 mm 15.0° 1015.9 hPa 4.4 m/s 0.0 mm 17.8° 1014.8 hPa 6.1 m/s 0.0 mm 18.1° 1014.2 hPa 6.8 m/s 0.3 mm 15.9° 1014.7 hPa 6.0 m/s
19:00 17.0° 1014.6 hPa 4.6 m/s 0.0 mm 17.8° 1013.4 hPa 5.2 m/s 4.7 mm 14.7° 1015.5 hPa 3.0 m/s 0.0 mm 17.4° 1014.9 hPa 4.5 m/s 0.0 mm 17.3° 1013.9 hPa 4.8 m/s 0.4 mm 16.0° 1014.3 hPa 5.3 m/s
22:00 14.1° 1015.1 hPa 3.1 m/s 0.0 mm 15.9° 1014.0 hPa 3.8 m/s 4.7 mm 13.5° 1015.6 hPa 2.5 m/s 0.0 mm 15.9° 1015.3 hPa 3.5 m/s 0.0 mm 13.6° 1014.7 hPa 3.0 m/s 0.0 mm 12.5° 1015.5 hPa 3.2 m/s
 04:46     21:34    Daglengte: 16:48 Dinsdag 18 Jun
01:00 12.6° 1015.2 hPa 2.8 m/s 0.0 mm 13.0° 1014.4 hPa 3.3 m/s 4.7 mm 12.6° 1015.8 hPa 2.2 m/s 0.0 mm 13.7° 1015.2 hPa 2.6 m/s 0.0 mm 11.7° 1015.2 hPa 2.8 m/s 0.0 mm 10.8° 1015.6 hPa 3.3 m/s
04:00 11.6° 1014.6 hPa 2.4 m/s 0.0 mm 11.6° 1013.7 hPa 2.0 m/s 4.7 mm 11.8° 1015.2 hPa 1.4 m/s 0.0 mm 12.2° 1015.0 hPa 2.8 m/s 0.0 mm 11.3° 1014.6 hPa 2.7 m/s 0.0 mm 9.4° 1015.3 hPa 2.5 m/s
07:00 12.5° 1014.7 hPa 2.6 m/s 0.0 mm 12.2° 1013.2 hPa 1.6 m/s 4.7 mm 12.9° 1014.9 hPa 1.6 m/s 0.0 mm 13.1° 1014.8 hPa 2.9 m/s 0.0 mm 12.6° 1014.7 hPa 3.3 m/s 0.0 mm 11.2° 1015.1 hPa 2.6 m/s
10:00 15.4° 1014.5 hPa 2.8 m/s 0.0 mm 15.8° 1013.5 hPa 2.3 m/s 4.7 mm 15.8° 1014.8 hPa 2.3 m/s 0.0 mm 16.5° 1014.5 hPa 3.3 m/s 0.0 mm 15.1° 1014.5 hPa 3.4 m/s 0.0 mm 15.3° 1014.8 hPa 3.2 m/s
13:00 17.4° 1013.6 hPa 2.9 m/s 0.0 mm 18.1° 1012.2 hPa 3.1 m/s 4.7 mm 18.6° 1013.5 hPa 2.2 m/s 0.0 mm 18.9° 1013.6 hPa 3.1 m/s 0.0 mm 16.5° 1013.7 hPa 2.8 m/s 0.0 mm 16.9° 1013.7 hPa 2.7 m/s
16:00 17.5° 1012.3 hPa 2.5 m/s 0.0 mm 18.3° 1010.2 hPa 2.5 m/s 4.8 mm 19.0° 1012.2 hPa 1.6 m/s 0.0 mm 16.2° 1012.8 hPa 2.6 m/s 0.0 mm 18.0° 1012.2 hPa 2.4 m/s
19:00 16.4° 1011.2 hPa 1.3 m/s 0.0 mm 16.4° 1009.1 hPa 2.8 m/s 5.5 mm 16.8° 1011.3 hPa 1.1 m/s 0.3 mm 15.7° 1011.4 hPa 0.9 m/s 0.0 mm 13.8° 1011.0 hPa 0.5 m/s
22:00 14.5° 1011.0 hPa 1.4 m/s 2.0 mm 15.2° 1009.1 hPa 2.0 m/s 6.2 mm 14.8° 1010.5 hPa 1.8 m/s 2.0 mm 13.7° 1011.2 hPa 1.4 m/s 1.4 mm 13.0° 1011.2 hPa 1.2 m/s
 04:46     21:34    Daglengte: 16:48 Woensdag 19 Jun
01:00 13.5° 1009.6 hPa 1.2 m/s 3.0 mm 13.6° 1007.4 hPa 0.9 m/s 6.2 mm 13.9° 1008.1 hPa 2.6 m/s 3.2 mm 13.0° 1010.0 hPa 1.1 m/s 1.2 mm 12.7° 1009.6 hPa 2.1 m/s
04:00 13.1° 1007.7 hPa 1.8 m/s 3.7 mm 13.4° 1006.5 hPa 2.5 m/s 6.3 mm 13.7° 1005.5 hPa 3.2 m/s 6.5 mm 12.7° 1008.5 hPa 1.6 m/s 0.9 mm 11.9° 1007.8 hPa 2.4 m/s
07:00 12.9° 1006.8 hPa 2.4 m/s 4.6 mm 12.8° 1005.2 hPa 2.8 m/s 6.5 mm 13.3° 1004.1 hPa 1.6 m/s 8.0 mm 12.9° 1008.2 hPa 2.5 m/s 0.3 mm 12.5° 1006.2 hPa 3.0 m/s
10:00 13.5° 1006.6 hPa 2.7 m/s 6.8 mm 12.5° 1005.1 hPa 3.1 m/s 21.7 mm 13.4° 1003.4 hPa 1.1 m/s 2.3 mm 14.6° 1008.2 hPa 2.7 m/s 13.8° 1005.7 hPa 2.9 m/s
13:00 13.1° 1007.2 hPa 4.1 m/s 9.4 mm 12.3° 1004.8 hPa 5.3 m/s 37.0 mm 12.1° 1004.6 hPa 4.1 m/s 0.5 mm 16.4° 1008.3 hPa 2.9 m/s 13.3° 1004.8 hPa 3.7 m/s
16:00 15.5° 1006.9 hPa 3.7 m/s 4.5 mm 14.5° 1005.4 hPa 4.5 m/s 38.5 mm 14.2° 1005.6 hPa 4.7 m/s 0.4 mm 16.5° 1008.2 hPa 2.8 m/s 12.0° 1004.7 hPa 5.0 m/s
19:00 16.4° 1007.1 hPa 3.0 m/s 0.0 mm 16.4° 1005.8 hPa 3.6 m/s 38.5 mm 15.7° 1006.2 hPa 3.3 m/s 0.0 mm 16.6° 1008.1 hPa 2.7 m/s 13.6° 1005.7 hPa 4.9 m/s
22:00 11.9° 1009.1 hPa 2.3 m/s 18.3 mm 12.0° 1009.2 hPa 2.3 m/s 10.8° 1008.0 hPa 2.8 m/s 18.3 mm
 04:47     21:35    Daglengte: 16:48 Donderdag 20 Jun
01:00 9.6° 1009.7 hPa 2.1 m/s 18.3 mm 9.7° 1009.8 hPa 2.1 m/s 8.4° 1008.2 hPa 2.5 m/s 18.3 mm
04:00 10.2° 1009.9 hPa 3.5 m/s 18.3 mm 10.3° 1010.0 hPa 3.5 m/s 9.0° 1009.0 hPa 3.3 m/s 18.3 mm
07:00 10.8° 1010.1 hPa 4.9 m/s 18.3 mm 10.9° 1010.1 hPa 5.0 m/s 10.2° 1009.8 hPa 3.6 m/s 18.3 mm
10:00 13.1° 1010.4 hPa 5.0 m/s 18.4 mm 13.0° 1010.4 hPa 5.0 m/s 13.9° 1010.5 hPa 5.3 m/s 18.4 mm
13:00 15.1° 1010.7 hPa 5.0 m/s 18.9 mm 15.1° 1010.7 hPa 5.0 m/s 15.4° 1010.5 hPa 5.5 m/s 18.9 mm
16:00 14.8° 1011.0 hPa 4.6 m/s 19.6 mm 14.8° 1011.0 hPa 4.6 m/s 14.4° 1010.5 hPa 5.1 m/s 19.6 mm
19:00 14.4° 1011.3 hPa 4.2 m/s 20.2 mm 14.5° 1011.4 hPa 4.2 m/s 13.5° 1010.8 hPa 4.7 m/s 20.2 mm
22:00 11.3° 1013.1 hPa 3.2 m/s 20.3 mm 11.4° 1013.2 hPa 3.2 m/s 9.8° 1012.0 hPa 3.5 m/s 20.3 mm
 04:47     21:35    Daglengte: 16:48 Vrijdag 21 Jun
01:00 8.3° 1014.8 hPa 2.3 m/s 20.3 mm 8.4° 1015.0 hPa 2.2 m/s 7.7° 1012.7 hPa 3.5 m/s 20.3 mm
04:00 9.1° 1015.8 hPa 2.2 m/s 20.3 mm 9.2° 1016.0 hPa 2.2 m/s 7.2° 1013.2 hPa 3.3 m/s 20.3 mm
07:00 10.0° 1016.8 hPa 2.2 m/s 20.3 mm 10.1° 1017.1 hPa 2.1 m/s 9.1° 1013.9 hPa 3.1 m/s 20.3 mm
10:00 12.6° 1018.0 hPa 3.2 m/s 20.6 mm 12.5° 1018.2 hPa 3.2 m/s 13.8° 1014.8 hPa 3.5 m/s 20.6 mm
13:00 15.0° 1019.1 hPa 4.3 m/s 21.0 mm 14.9° 1019.4 hPa 4.3 m/s 16.2° 1015.3 hPa 3.8 m/s 21.0 mm
16:00 14.9° 1019.9 hPa 3.5 m/s 21.4 mm 14.7° 1020.2 hPa 3.5 m/s 16.9° 1016.1 hPa 3.6 m/s 21.4 mm
19:00 14.5° 1020.6 hPa 2.7 m/s 21.9 mm 14.5° 1021.0 hPa 2.6 m/s 15.0° 1016.7 hPa 3.6 m/s 21.9 mm
22:00 11.4° 1022.1 hPa 2.0 m/s 22.0 mm 11.4° 1022.5 hPa 2.0 m/s 10.4° 1018.6 hPa 2.4 m/s 22.0 mm
 04:47     21:35    Daglengte: 16:48 Zaterdag 22 Jun
01:00 8.4° 1023.5 hPa 1.3 m/s 22.0 mm 8.4° 1023.9 hPa 1.3 m/s 8.4° 1019.6 hPa 1.6 m/s 22.0 mm
04:00 9.1° 1024.0 hPa 1.5 m/s 22.0 mm 9.3° 1024.3 hPa 1.6 m/s 7.2° 1019.8 hPa 1.1 m/s 22.0 mm
07:00 10.2° 1024.4 hPa 1.7 m/s 22.0 mm 10.2° 1024.8 hPa 1.8 m/s 9.9° 1020.4 hPa 0.8 m/s 22.0 mm
10:00 13.3° 1024.4 hPa 1.8 m/s 22.0 mm 13.2° 1024.8 hPa 1.9 m/s 14.7° 1020.2 hPa 1.8 m/s 22.0 mm
13:00 16.2° 1024.4 hPa 1.9 m/s 22.0 mm 16.1° 1024.8 hPa 1.9 m/s 17.6° 1019.6 hPa 2.5 m/s 22.0 mm
16:00 16.4° 1023.8 hPa 2.0 m/s 22.0 mm 16.1° 1024.2 hPa 1.9 m/s 18.7° 1018.7 hPa 2.2 m/s 22.0 mm
19:00 16.3° 1023.2 hPa 1.9 m/s 22.1 mm 16.2° 1023.7 hPa 2.0 m/s 17.6° 1018.0 hPa 0.3 m/s 22.1 mm
22:00 14.4° 1023.6 hPa 2.5 m/s 22.6 mm 14.4° 1024.1 hPa 2.5 m/s 14.1° 1018.6 hPa 2.2 m/s 22.6 mm
 04:47     21:35    Daglengte: 16:48 Zondag 23 Jun
01:00 12.7° 1023.9 hPa 3.0 m/s 22.9 mm 12.7° 1024.4 hPa 3.1 m/s 12.4° 1018.1 hPa 1.7 m/s 22.9 mm
04:00 12.1° 1023.8 hPa 2.9 m/s 22.9 mm 12.2° 1024.4 hPa 3.0 m/s 10.8° 1017.0 hPa 1.5 m/s 22.9 mm
07:00 11.9° 1023.8 hPa 2.9 m/s 22.9 mm 11.8° 1024.4 hPa 3.0 m/s 12.5° 1016.8 hPa 1.9 m/s 22.9 mm
10:00 13.7° 1023.5 hPa 3.3 m/s 22.9 mm 13.6° 1024.1 hPa 3.2 m/s 14.8° 1016.5 hPa 3.5 m/s 22.9 mm
13:00 15.5° 1023.1 hPa 3.6 m/s 23.3 mm 15.4° 1023.8 hPa 3.5 m/s 16.6° 1015.3 hPa 5.0 m/s 23.3 mm
16:00 15.6° 1022.2 hPa 4.2 m/s 23.6 mm 15.4° 1023.0 hPa 4.1 m/s 18.0° 1013.2 hPa 4.8 m/s 23.6 mm
19:00 15.5° 1021.5 hPa 4.7 m/s 25.0 mm 15.4° 1022.3 hPa 4.7 m/s 16.2° 1012.2 hPa 4.2 m/s 25.0 mm
 04:48     21:35    Daglengte: 16:47 Maandag 24 Jun
01:00 12.6° 1021.8 hPa 4.5 m/s 27.3 mm 12.6° 1022.8 hPa 4.5 m/s 12.2° 1010.4 hPa 4.7 m/s 27.3 mm
07:00 11.5° 1021.6 hPa 5.0 m/s 34.0 mm 11.3° 1023.0 hPa 5.1 m/s 13.8° 1006.0 hPa 4.2 m/s 34.0 mm
13:00 12.6° 1023.0 hPa 5.4 m/s 38.9 mm 12.1° 1024.7 hPa 5.3 m/s 17.7° 1004.1 hPa 6.9 m/s 38.9 mm
19:00 13.7° 1023.1 hPa 5.7 m/s 40.7 mm 13.5° 1025.0 hPa 5.6 m/s 16.2° 1002.2 hPa 7.2 m/s 40.7 mm
 04:48     21:35    Daglengte: 16:47 Dinsdag 25 Jun
01:00 10.0° 1025.2 hPa 4.6 m/s 40.9 mm 9.7° 1027.2 hPa 4.4 m/s 13.5° 1002.8 hPa 6.4 m/s 40.9 mm
07:00 9.8° 1026.2 hPa 5.1 m/s 41.3 mm 9.5° 1028.3 hPa 4.9 m/s 13.6° 1002.9 hPa 7.0 m/s 41.3 mm
13:00 16.9° 1026.1 hPa 5.3 m/s 41.7 mm 17.0° 1028.1 hPa 5.2 m/s 15.8° 1004.2 hPa 6.1 m/s 41.7 mm
19:00 17.0° 1026.0 hPa 4.7 m/s 44.4 mm 17.1° 1027.8 hPa 4.5 m/s 15.9° 1005.8 hPa 6.3 m/s 44.4 mm
 04:49     21:35    Daglengte: 16:46 Woensdag 26 Jun
01:00 9.2° 1027.8 hPa 2.0 m/s 44.6 mm 8.9° 1029.4 hPa 1.7 m/s 12.3° 1009.8 hPa 5.2 m/s 44.6 mm
07:00 10.5° 1014.0 hPa 8.0 m/s 44.9 mm 10.5° 1014.0 hPa 8.0 m/s 44.9 mm
13:00 16.0° 1022.4 hPa 3.8 m/s 0.3 mm
19:00 15.9° 1021.8 hPa 3.7 m/s 0.9 mm
 04:49     21:35    Daglengte: 16:46 Donderdag 27 Jun
01:00 8.9° 1022.5 hPa 1.7 m/s 0.3 mm
07:00 10.4° 1021.3 hPa 1.7 m/s 0.0 mm
13:00 16.6° 1020.0 hPa 2.4 m/s 0.5 mm
19:00 16.4° 1018.1 hPa 2.1 m/s 0.9 mm
 04:50     21:35    Daglengte: 16:45 Vrijdag 28 Jun
01:00 10.1° 1018.0 hPa 1.2 m/s 0.5 mm
07:00 11.3° 1016.9 hPa 1.5 m/s 0.2 mm
13:00 16.7° 1016.3 hPa 2.4 m/s 0.5 mm
19:00 16.8° 1015.3 hPa 2.2 m/s 0.5 mm
 04:50     21:35    Daglengte: 16:45 Zaterdag 29 Jun
01:00 10.4° 1015.6 hPa 1.3 m/s 0.4 mm
07:00 11.9° 1014.8 hPa 1.6 m/s 0.2 mm
13:00 17.9° 1014.1 hPa 2.5 m/s 0.5 mm
19:00 17.5° 1013.1 hPa 2.4 m/s 1.2 mm
 04:51     21:34    Daglengte: 16:43 Zondag 30 Jun
01:00 11.4° 1013.6 hPa 1.8 m/s 0.5 mm
07:00 11.4° 1012.5 hPa 1.6 m/s 0.4 mm
13:00 16.7° 1011.9 hPa 3.1 m/s 1.0 mm
19:00 16.0° 1011.6 hPa 3.7 m/s 1.1 mm
 04:52     21:34    Daglengte: 16:42 Maandag 01 Jul
01:00 10.4° 1012.8 hPa 2.5 m/s 0.4 mm
07:00 10.9° 1012.7 hPa 2.6 m/s 0.6 mm
13:00 16.5° 1013.0 hPa 4.1 m/s 0.5 mm
FMI Hirlam - 7.5 km EWN WRFDA - 12 km DWD ICON - 7 km GFS - 25 km Basiskaart






























































Updatetijd (Europe/Amsterdam) Resolutie Lengte Stap
FMI Hirlam 19:00, 01:00, 07:00, 13:00 7.5 km 49h 1h
EWN WRFDA 16:15, 22:15, 04:15, 10:15 12 km 73h 1h
DWD ICON 18:00, 00:00, 06:00, 12:00 7 km 75h 1h
GFS 14:30, 20:30, 02:30, 08:30 25 km 237h 3h
30+ mm
25-30 mm
20-25 mm
15-20 mm
10-15 mm
6-10 mm
4-6 mm
2-4 mm
1-2 mm
0.5-1 mm
0.2-0.5 mm
0.1-0.2 mm
30+ mm
25-30 mm
20-25 mm
15-20 mm
10-15 mm
6-10 mm
4-6 mm
2-4 mm
1-2 mm
0.5-1 mm
0.2-0.5 mm
0.1-0.2 mm
Sneeuwval
Natte sneeuw
Hagel
Vorst
30+ mm
25-30 mm
20-25 mm
15-20 mm
10-15 mm
6-10 mm
4-6 mm
2-4 mm
1-2 mm
0.5-1 mm
0.2-0.5 mm
0.1-0.2 mm
Sneeuwval
Natte sneeuw
Hagel
Vorst
Onweer
50 mm
40 mm
30 mm
26 mm
22 mm
18 mm
14 mm
10 mm
9 mm
8 mm
7 mm
6 mm
5 mm
4.5 mm
4 mm
3.5 mm
3 mm
2.5 mm
2 mm
1.5 mm
1 mm
0.8 mm
0.6 mm
0.4 mm
0.2 mm
0.05 mm
35°
30°
25°
20°
15°
10°
-5°
-10°
-15°
-20°
-25°
-30°
-35°
33> m/s
29 m/s
25 m/s
21 m/s
17 m/s
14 m/s
11 m/s
8 m/s
5 m/s
3 m/s
0 m/s
2600 J/kg
2400 J/kg
2200 J/kg
2000 J/kg
1800 J/kg
1600 J/kg
1400 J/kg
1200 J/kg
1000 J/kg
800 J/kg
600 J/kg
400 J/kg
200 J/kg
70 dBZ
65 dBZ
60 dBZ
55 dBZ
50 dBZ
45 dBZ
40 dBZ
35 dBZ
30 dBZ
25 dBZ
20 dBZ
15 dBZ
10 dBZ
5 dBZ
-1 K
-2 K
-3 K
-4 K
-5 K
-6 K
-7 K
-8 K
-9 K
950 m²/s²
900 m²/s²
850 m²/s²
800 m²/s²
750 m²/s²
700 m²/s²
650 m²/s²
600 m²/s²
550 m²/s²
500 m²/s²
450 m²/s²
400 m²/s²
350 m²/s²
300 m²/s²
250 m²/s²
200 m²/s²
150 m²/s²
100 m²/s²
46 m/s
44 m/s
42 m/s
40 m/s
38 m/s
36 m/s
34 m/s
32 m/s
30 m/s
28 m/s
26 m/s
24 m/s
22 m/s
20 m/s
16 m/s
12 m/s
8 m/s
4 m/s
30 m/s
28 m/s
26 m/s
24 m/s
22 m/s
20 m/s
18 m/s
16 m/s
14 m/s
12 m/s
10 m/s
8 m/s
6 m/s
4 m/s
2 m/s
3.0
2.8
2.6
2.4
2.2
2.0
1.8
1.6
1.4
1.2
1.0
0.8
0.6
0.4
0.2
15
14
13
12
11
10
9
8
7
6
5
4
3
2
1
90%
80%
70%
60%
50%
40%
30%
20%
10%
42
40
38
36
34
32
30
28
26
24
22
20
18
16
14
12
90+ cm
80-90 cm
70-80 cm
60-70 cm
50-60 cm
40-50 cm
30-40 cm
20-30 cm
10-20 cm
1-10 cm
Sneeuwval
Natte sneeuw
Regen
>120 mm
115 mm
110 mm
105 mm
100 mm
95 mm
90 mm
85 mm
80 mm
75 mm
70 mm
65 mm
60 mm
55 mm
50 mm
45 mm
45 mm
40 mm
35 mm
30 mm
25 mm
20 mm
15 mm
10 mm
5 mm
0.1 mm
960 hPa
880 hPa
800 hPa
720 hPa
640 hPa
560 hPa
584 gpdm
568 gpdm
552 gpdm
536 gpdm
520 gpdm
504 gpdm
488 gpdm
Extreem zwaar Noodweer Kans op onweer
15% 15% 5% 50% 15%

Dag




Kaart






35°
30°
25°
20°
15°
10°
-5°
-10°
-15°
-20°
-25°
-30°
-35°
33> m/s
29 m/s
25 m/s
21 m/s
17 m/s
14 m/s
11 m/s
8 m/s
5 m/s
3 m/s
0 m/s
Extreem zwaar Noodweer Kans op onweer
15% 15% 5% 50% 15%
>120 mm
115 mm
110 mm
105 mm
100 mm
95 mm
90 mm
85 mm
80 mm
75 mm
70 mm
65 mm